Dumas, TX

4:26 PM CDT on October 23, 2017 (GMT -0500)
Moore County

Weather History for KDUX - November, 2012

Change the Weather History Date:

Monday, November 26, 2012

  Actual Average (KDHT) Record (KDHT)
Temperature  
Mean Temperature 32 °F -  
Max Temperature 42 °F 52 °F 81 °F (1977)
Min Temperature 21 °F 25 °F -2 °F (1952)
Degree Days  
Heating Degree Days 34    
Moisture  
Dew Point 22 °F    
Average Humidity 70    
Maximum Humidity 86    
Minimum Humidity 53    
Precipitation  
Precipitation 0.00 in - - ()
Sea Level Pressure  
Sea Level Pressure 30.17 in    
Wind  
Wind Speed 11 mph (North)    
Max Wind Speed 24 mph    
Max Gust Speed 34 mph    
Visibility 10 miles    
Events      
Averages and records for this station are not official NWS values.
T = Trace of Precipitation, MM = Missing Value Source: NWS Daily Summary

Daily Weather History Graph

Daily Weather History Graph

Search for Another Location

Airport or City:

Trip Planner

Search our weather history database for the weather conditions in past years. The results will help you decide how hot, cold, wet, or windy it might be!

Date:

Astronomy

Nov. 26, 2012 Rise Set
Actual Time 7:35 AM CST 5:35 PM CST
Civil Twilight 7:07 AM CST 6:03 PM CST
Nautical Twilight 6:36 AM CST 6:34 PM CST
Astronomical Twilight 6:05 AM CST 7:05 PM CST
Moon 4:27 PM CST (11/26) 5:49 AM CST (11/26)
Length of Visible Light 10h 55m
Length of Day
9h 59m
Waxing Gibbous, 97% of the Moon is Illuminated
Nov 26
Waxing Gibbous
Nov 28
Full
Dec 6
Last Quarter
Dec 13
New
Dec 19
First Quarter

Hourly Weather History & Observations

Time (CST) Temp. Windchill Dew Point Humidity Pressure Visibility Wind Dir Wind Speed Gust Speed Precip Events Conditions
12:15 AM 32.0 °F 24.8 °F 17.6 °F 55% 29.86 in 10.0 mi North 8.1 mph - N/A   Clear
12:35 AM 30.2 °F 25.4 °F 17.6 °F 60% 29.86 in 10.0 mi NE 4.6 mph - N/A   Clear
12:55 AM 30.2 °F 23.4 °F 17.6 °F 60% 29.86 in 10.0 mi North 6.9 mph - N/A   Clear
1:15 AM 32.0 °F 27.5 °F 19.4 °F 60% 29.86 in 10.0 mi NE 4.6 mph - N/A   Clear
1:35 AM 32.0 °F 28.7 °F 19.4 °F 60% 29.87 in 10.0 mi North 3.5 mph - N/A   Clear
1:55 AM 28.4 °F 18.5 °F 17.6 °F 64% 29.88 in 10.0 mi NNW 11.5 mph - N/A   Clear
2:15 AM 28.4 °F 21.2 °F 17.6 °F 64% 29.89 in 10.0 mi NNW 6.9 mph - N/A   Clear
2:35 AM 28.4 °F 19.7 °F 17.6 °F 64% 29.90 in 10.0 mi NNW 9.2 mph - N/A   Clear
2:55 AM 28.4 °F 20.4 °F 17.6 °F 64% 29.91 in 10.0 mi NNW 8.1 mph - N/A   Clear
3:15 AM 26.6 °F 16.2 °F 17.6 °F 69% 29.92 in 10.0 mi North 11.5 mph - N/A   Clear
3:35 AM 26.6 °F 16.8 °F 19.4 °F 74% 29.93 in 10.0 mi North 10.4 mph - N/A   Clear
3:55 AM 26.6 °F 17.5 °F 19.4 °F 74% 29.95 in 10.0 mi North 9.2 mph - N/A   Clear
4:15 AM 26.6 °F 18.2 °F 19.4 °F 74% 29.95 in 10.0 mi North 8.1 mph - N/A   Clear
4:35 AM 26.6 °F 18.2 °F 19.4 °F 74% 29.96 in 10.0 mi North 8.1 mph - N/A   Clear
4:55 AM 26.6 °F 17.5 °F 19.4 °F 74% 29.97 in 10.0 mi NNW 9.2 mph - N/A   Clear
5:15 AM 24.8 °F 14.0 °F 19.4 °F 80% 29.97 in 10.0 mi North 11.5 mph - N/A   Clear
5:35 AM 24.8 °F 14.6 °F 19.4 °F 80% 29.98 in 10.0 mi North 10.4 mph - N/A   Clear
5:55 AM 24.8 °F 14.0 °F 19.4 °F 80% 30.00 in 10.0 mi North 11.5 mph - N/A   Clear
6:15 AM 26.6 °F 15.2 °F 21.2 °F 80% 30.02 in 10.0 mi North 13.8 mph - N/A   Clear
6:35 AM 26.6 °F 15.7 °F 23.0 °F 86% 30.04 in 10.0 mi North 12.7 mph - N/A   Clear
6:55 AM 26.6 °F 15.2 °F 23.0 °F 86% 30.06 in 10.0 mi North 13.8 mph - N/A   Clear
7:15 AM 26.6 °F 15.7 °F 23.0 °F 86% 30.07 in 10.0 mi North 12.7 mph - N/A   Clear
7:35 AM 26.6 °F 15.2 °F 23.0 °F 86% 30.08 in 10.0 mi North 13.8 mph - N/A   Clear
7:55 AM 26.6 °F 15.7 °F 23.0 °F 86% 30.09 in 10.0 mi North 12.7 mph - N/A   Clear
8:15 AM 26.6 °F 15.7 °F 23.0 °F 86% 30.11 in 10.0 mi North 12.7 mph - N/A   Clear
8:35 AM 28.4 °F 18.0 °F 24.8 °F 86% 30.12 in 10.0 mi North 12.7 mph - N/A   Clear
8:55 AM 30.2 °F 18.5 °F 24.8 °F 80% 30.13 in 10.0 mi North 17.3 mph - N/A   Clear
9:15 AM 32.0 °F 20.8 °F 26.6 °F 80% 30.15 in 10.0 mi North 17.3 mph 24.2 mph N/A   Clear
9:35 AM 32.0 °F 21.6 °F 26.6 °F 80% 30.16 in 10.0 mi North 15.0 mph - N/A   Clear
9:55 AM 32.0 °F 20.5 °F 26.6 °F 80% 30.17 in 10.0 mi North 18.4 mph 23.0 mph N/A   Clear
10:15 AM 33.8 °F 23.2 °F 26.6 °F 75% 30.18 in 10.0 mi North 17.3 mph 23.0 mph N/A   Clear
10:35 AM 35.6 °F 24.5 °F 26.6 °F 70% 30.19 in 10.0 mi North 20.7 mph 26.5 mph N/A   Clear
10:55 AM 35.6 °F 25.5 °F 26.6 °F 70% 30.21 in 10.0 mi North 17.3 mph - N/A   Clear
11:15 AM 35.6 °F 24.8 °F 26.6 °F 70% 30.21 in 10.0 mi North 19.6 mph 24.2 mph N/A   Clear
11:35 AM 37.4 °F 28.2 °F 26.6 °F 65% 30.22 in 10.0 mi North 16.1 mph 25.3 mph N/A   Clear
11:55 AM 39.2 °F 30.2 °F 26.6 °F 61% 30.22 in 10.0 mi North 17.3 mph 26.5 mph N/A   Clear
12:15 PM 41.0 °F 32.2 °F 26.6 °F 57% 30.23 in 10.0 mi North 18.4 mph 24.2 mph N/A   Clear
12:35 PM 41.0 °F 32.5 °F 26.6 °F 57% 30.24 in 10.0 mi NNE 17.3 mph 26.5 mph N/A   Clear
12:55 PM 41.0 °F 32.2 °F 26.6 °F 57% 30.24 in 10.0 mi North 18.4 mph 29.9 mph N/A   Clear
1:15 PM 41.0 °F 30.9 °F 26.6 °F 57% 30.24 in 10.0 mi NNE 24.2 mph 29.9 mph N/A   Clear
1:35 PM 42.8 °F 34.0 °F 26.6 °F 53% 30.24 in 10.0 mi North 20.7 mph 25.3 mph N/A   Clear
1:55 PM 41.0 °F 31.4 °F 26.6 °F 57% 30.24 in 10.0 mi NNE 21.9 mph 28.8 mph N/A   Clear
2:15 PM 41.0 °F 31.1 °F 26.6 °F 57% 30.25 in 10.0 mi North 23.0 mph 29.9 mph N/A   Clear
2:35 PM 39.2 °F 29.8 °F 26.6 °F 61% 30.25 in 10.0 mi North 18.4 mph 34.5 mph N/A   Clear
2:55 PM 37.4 °F 26.9 °F 26.6 °F 65% 30.26 in 10.0 mi North 20.7 mph 28.8 mph N/A   Clear
3:15 PM 39.2 °F 29.8 °F 26.6 °F 61% 30.26 in 10.0 mi NNE 18.4 mph 27.6 mph N/A   Clear
3:35 PM 39.2 °F 30.2 °F 26.6 °F 61% 30.27 in 10.0 mi North 17.3 mph 26.5 mph N/A   Scattered Clouds
3:55 PM 37.4 °F 27.8 °F 26.6 °F 65% 30.28 in 10.0 mi NNE 17.3 mph 23.0 mph N/A   Overcast
4:15 PM 37.4 °F 28.9 °F 26.6 °F 65% 30.29 in 10.0 mi North 13.8 mph - N/A   Overcast
4:35 PM 35.6 °F 26.6 °F 24.8 °F 65% 30.30 in 10.0 mi North 13.8 mph 19.6 mph N/A   Overcast
4:55 PM 35.6 °F 26.2 °F 24.8 °F 65% 30.30 in 10.0 mi North 15.0 mph - N/A   Mostly Cloudy
5:15 PM 33.8 °F 23.5 °F 23.0 °F 65% 30.31 in 10.0 mi NNE 16.1 mph - N/A   Overcast
5:35 PM 33.8 °F 25.3 °F 23.0 °F 65% 30.32 in 10.0 mi NNE 11.5 mph - N/A   Overcast
5:55 PM 33.8 °F 24.3 °F 23.0 °F 65% 30.32 in 10.0 mi NNE 13.8 mph 18.4 mph N/A   Overcast
6:15 PM 33.8 °F 24.3 °F 23.0 °F 65% 30.33 in 10.0 mi NNE 13.8 mph - N/A   Overcast
6:35 PM 33.8 °F 25.8 °F 21.2 °F 60% 30.34 in 10.0 mi NNE 10.4 mph - N/A   Overcast
6:55 PM 32.0 °F 22.1 °F 21.2 °F 64% 30.35 in 10.0 mi NNE 13.8 mph - N/A   Overcast
7:15 PM 32.0 °F 24.2 °F 21.2 °F 64% 30.35 in 10.0 mi North 9.2 mph - N/A   Mostly Cloudy
7:35 PM 32.0 °F 25.6 °F 21.2 °F 64% 30.36 in 10.0 mi North 6.9 mph - N/A   Scattered Clouds
7:55 PM 30.2 °F 22.6 °F 21.2 °F 69% 30.37 in 10.0 mi North 8.1 mph - N/A   Clear
8:15 PM 30.2 °F 23.4 °F 21.2 °F 69% 30.38 in 10.0 mi North 6.9 mph - N/A   Clear
8:35 PM 28.4 °F 20.4 °F 19.4 °F 69% 30.39 in 10.0 mi North 8.1 mph - N/A   Clear
8:55 PM 26.6 °F 21.2 °F 19.4 °F 74% 30.39 in 10.0 mi North 4.6 mph - N/A   Clear
9:15 PM 26.6 °F 22.6 °F 19.4 °F 74% 30.38 in 10.0 mi NNE 3.5 mph - N/A   Clear
9:35 PM 26.6 °F 21.2 °F 19.4 °F 74% 30.39 in 10.0 mi NNE 4.6 mph - N/A   Clear
9:55 PM 26.6 °F 21.2 °F 19.4 °F 74% 30.40 in 10.0 mi North 4.6 mph - N/A   Clear
10:15 PM 26.6 °F 21.2 °F 17.6 °F 69% 30.40 in 10.0 mi NNW 4.6 mph - N/A   Clear
10:55 PM 23.0 °F 15.8 °F 17.6 °F 80% 30.41 in 10.0 mi NW 5.8 mph - N/A   Clear
11:15 PM 23.0 °F 14.7 °F 17.6 °F 80% 30.42 in 10.0 mi NNW 6.9 mph - N/A   Clear
11:35 PM 21.2 °F 11.7 °F 15.8 °F 80% 30.42 in 10.0 mi NNW 8.1 mph - N/A   Clear
11:55 PM 21.2 °F 13.6 °F 14.0 °F 74% 30.42 in 10.0 mi NNW 5.8 mph - N/A   Clear